Flag for China Weather past 2 weeks in Lanzhou, Gansu, China

Now
23 °F

Clear.


Feels Like: 23 °F
Forecast: 10 / 42 °F
Wind: No wind

Location: Lanzhou / Zhongchuan

Current Time: Feb 28, 2015 at 10:04:22 PM

Latest Report: Feb 28, 2015 at 9:00 PM


Visibility: 5 mi

Pressure: 30.27 "Hg

Humidity: 68%

Dew point: 14 °F

Location of LanzhouLocation

Historic Weather in Lanzhou — Graph

°F

Lanzhou temperature yesterday

Maximum temperature yesterday: 30 °F (at 1:00 PM)
Minimum temperature yesterday: 25 °F (at 11:00 PM)
Average temperature yesterday: 28 °F

Past Weeks' High & Low Weather Summary

 TemperatureHumidityPressure
High50 °F (Feb 16, 5:00 PM)100% (Feb 24, 8:00 PM)30.36 "Hg (Feb 24, 8:00 PM)
Low9 °F (Feb 16, 8:00 AM)10% (Feb 16, 5:00 PM)29.68 "Hg (Feb 26, 4:00 PM)
Average30 °F49%30.01 "Hg
* Reported Feb 13 9:00 PM — Feb 28 9:00 PM, Lanzhou, Weather by CustomWeather, © 2015

Note: Actual official high and low records may vary slightly from our data, if they occured in-between our weather recording intervals... More about our weather records

Advertising

Lanzhou weather history for previous 24 hours

 ConditionsComfort  
Time TempWeatherWind HumidityBarometerVisibility
9:00 PM
Sat, Feb 28
23 °FClear.No wind68%30.27 "Hg5 mi
8:00 PM27 °FClear.No wind54%30.27 "Hg10 mi
7:00 PM30 °FSunny.3 mph47%30.27 "Hg10 mi
6:00 PM32 °FPassing clouds.3 mph44%30.24 "HgN/A
5:00 PM32 °FSunny.1 mph44%30.27 "Hg10 mi
4:00 PM32 °FSunny.6 mph44%30.27 "Hg10 mi
3:00 PM30 °FPassing clouds.3 mph47%30.30 "HgN/A
2:00 PM30 °FPassing clouds.3 mph47%30.30 "HgN/A
1:00 PM28 °FPassing clouds.3 mph51%30.33 "HgN/A
12:00 PM28 °FPassing clouds.1 mph47%30.36 "HgN/A
11:00 AM27 °FSunny.1 mph54%30.36 "Hg10 mi
10:00 AM25 °FScattered clouds.3 mph59%30.36 "HgN/A
9:00 AM23 °FScattered clouds.3 mph63%30.33 "HgN/A
8:00 AM23 °FPassing clouds.1 mph58%30.27 "HgN/A
7:00 AM21 °FPassing clouds.3 mph68%30.27 "HgN/A
6:00 AM21 °FPassing clouds.3 mph68%30.24 "HgN/A
5:00 AM23 °FPassing clouds.3 mph63%30.24 "HgN/A
4:00 AM23 °FPassing clouds.6 mph63%30.24 "HgN/A
3:00 AM25 °FPassing clouds.6 mph59%30.24 "HgN/A
2:00 AM25 °FClear.6 mph54%30.21 "Hg10 mi
1:00 AM25 °FClear.6 mph50%30.21 "Hg10 mi
12:00 AM25 °FClear.6 mph46%30.18 "Hg10 mi
11:00 PM
Fri, Feb 27
25 °FClear.10 mph46%30.15 "Hg10 mi
10:00 PM27 °FPassing clouds.10 mph43%30.18 "HgN/A
Weather by CustomWeather, © 2015

See weather overviewHow to use our weather pages